Date String (YYYY-MM-DD hh:mm:ss) UTC,Instrument flags,Ambient pressure (hPa),Sample flow (lpm),Bypass flow (lpm),Sample temperature (°C),Ambient temperature (°C),ASC tube jacket temperature (°C),LED temperature (°C),Box temperature (°C),Sample RH (%),Span deviation,Mass concentration (μg/m³),Mass concentration (μg/m³),Mass concentration (μg/m³)
DateTimeUTC,F1_M11,P_M11,Q1_M11,Q2_M11,T1_M11,T2_M11,T3_M11,T4_M11,T5_M11,U1_M11,ZSPAN_M11,X0_M11,X2_M11,X1_M11
2021-09-06 06:00:00,,0830.8,5.01,0.00,29.8,28.8,00.0,38.8,31.6,10.4,0002.2,0015.39,0010.65,0010.03
2021-09-06 06:01:00,,0830.8,4.99,0.00,29.9,28.9,00.0,38.8,31.6,10.3,0002.6,0015.59,0010.65,0010.03
2021-09-06 06:02:00,,0830.8,4.99,0.00,29.9,28.9,00.0,38.9,31.7,10.2,0003.3,0015.57,0010.68,0010.05
2021-09-06 06:03:00,,0830.8,5.01,0.00,29.9,28.9,00.0,38.9,31.7,10.3,0003.6,0015.15,0010.66,0010.07
2021-09-06 06:04:00,,0830.8,5.00,0.00,29.9,28.9,00.0,38.9,31.7,10.2,0003.8,0015.12,0010.64,0010.05
2021-09-06 06:05:00,,0830.8,5.00,0.00,30.0,29.0,00.0,38.9,31.7,10.2,0003.3,0015.51,0010.64,0010.03
2021-09-06 06:06:00,,0830.8,5.00,0.00,30.0,29.0,00.0,38.9,31.8,10.1,0003.2,0015.89,0010.64,0010.03
2021-09-06 06:07:00,,0830.7,4.99,0.00,30.0,29.0,00.0,39.0,31.8,10.1,0003.2,0015.96,0010.65,0010.04
2021-09-06 06:08:00,,0830.7,5.01,0.00,30.0,28.8,00.0,39.0,31.7,10.1,0003.4,0015.57,0010.59,0010.02
2021-09-06 06:09:00,,0830.7,5.01,0.00,29.9,26.9,00.0,38.9,31.2,10.1,0003.9,0015.38,0010.59,0010.00
2021-09-06 06:10:00,,0830.6,4.99,0.00,29.7,26.2,00.0,38.9,31.0,10.2,0004.0,0015.54,0010.59,0010.01
2021-09-06 06:11:00,,0830.6,5.00,0.00,29.7,26.4,00.0,38.9,31.1,10.2,0003.7,0016.07,0010.56,0010.01
2021-09-06 06:12:00,,0830.6,5.01,0.00,29.6,26.8,00.0,38.9,31.1,10.3,0003.5,0016.49,0010.52,0009.99
2021-09-06 06:13:00,,0830.6,4.99,0.00,29.6,27.2,00.0,38.8,31.2,10.4,0002.3,0016.53,0010.52,0009.98
2021-09-06 06:14:00,,0830.6,5.01,0.00,29.6,27.5,00.0,38.8,31.2,10.3,0001.7,0016.54,0010.51,0009.95
2021-09-06 06:15:00,,0830.7,4.99,0.00,29.6,27.8,00.0,38.8,31.2,10.3,0001.6,0016.68,0010.54,0009.96
2021-09-06 06:16:00,,0830.7,4.99,0.00,29.6,28.0,00.0,38.8,31.3,10.3,0001.7,0016.28,0010.57,0009.99
2021-09-06 06:17:00,,0830.7,5.01,0.00,29.6,28.2,00.0,38.8,31.3,10.4,0001.5,0016.04,0010.54,0009.99
2021-09-06 06:18:00,,0830.6,5.00,0.00,29.6,28.3,00.0,38.8,31.3,10.3,0001.4,0016.18,0010.59,0010.01
2021-09-06 06:19:00,,0830.6,4.99,0.00,29.7,28.4,00.0,38.8,31.4,10.3,0001.0,0016.99,0010.66,0010.04
2021-09-06 06:20:00,,0830.6,5.00,0.00,29.7,28.5,00.0,38.8,31.4,10.3,0000.7,0016.98,0010.70,0010.07
2021-09-06 06:21:00,,0830.6,5.01,0.00,29.7,28.5,00.0,38.8,31.4,10.2,0000.5,0016.85,0010.74,0010.13
2021-09-06 06:22:00,,0830.6,4.99,0.00,29.7,28.6,00.0,38.8,31.4,10.1,0000.4,0016.39,0010.75,0010.14
2021-09-06 06:23:00,,0830.6,5.00,0.00,29.8,28.6,00.0,38.8,31.5,10.2,0000.3,0015.84,0010.79,0010.15
2021-09-06 06:24:00,,0830.6,5.01,0.00,29.8,28.7,00.0,38.8,31.5,10.4,0001.2,0015.92,0010.80,0010.17
2021-09-06 06:25:00,,0830.6,4.99,0.00,29.8,28.7,00.0,38.8,31.5,10.2,0001.6,0016.39,0010.85,0010.18
2021-09-06 06:26:00,,0830.6,5.01,0.00,29.8,28.8,00.0,38.8,31.5,10.2,0001.2,0017.16,0010.88,0010.19
2021-09-06 06:27:00,,0830.6,4.99,0.00,29.9,28.8,00.0,38.9,31.6,10.1,0001.7,0017.96,0010.92,0010.20
2021-09-06 06:28:00,,0830.6,4.98,0.00,29.9,28.8,00.0,38.9,31.6,10.0,0001.9,0018.58,0010.99,0010.22
2021-09-06 06:29:00,,0830.6,5.01,0.00,29.9,28.9,00.0,38.9,31.6,10.0,0002.0,0018.55,0010.96,0010.23
2021-09-06 06:30:00,,0830.6,5.00,0.00,29.9,28.9,00.0,38.9,31.7,10.0,0002.2,0018.04,0010.92,0010.22
2021-09-06 06:31:00,,0830.6,5.01,0.00,29.9,28.9,00.0,38.9,31.7,10.1,0002.2,0018.89,0010.95,0010.23
2021-09-06 06:32:00,,0830.6,5.00,0.00,30.0,28.9,00.0,39.0,31.7,10.2,0002.3,0019.75,0010.97,0010.23
2021-09-06 06:33:00,,0830.6,5.00,0.00,30.0,29.0,00.0,39.0,31.7,10.1,0003.0,0019.51,0010.96,0010.24
2021-09-06 06:34:00,,0830.6,5.00,0.00,30.0,29.0,00.0,39.0,31.7,10.1,0003.3,0019.50,0010.97,0010.27
2021-09-06 06:35:00,,0830.6,5.00,0.00,30.0,29.0,00.0,39.0,31.7,10.2,0002.7,0019.43,0010.96,0010.28
2021-09-06 06:36:00,,0830.6,5.00,0.00,30.0,29.1,00.0,39.0,31.8,10.2,0002.7,0019.10,0010.95,0010.31
2021-09-06 06:37:00,,0830.6,5.00,0.00,30.1,28.6,00.0,39.0,31.7,10.2,0003.0,0019.08,0010.95,0010.33
2021-09-06 06:38:00,,0830.6,4.99,0.00,29.9,26.6,00.0,39.0,31.2,10.2,0003.0,0019.22,0010.95,0010.34
2021-09-06 06:39:00,,0830.6,5.01,0.00,29.8,26.2,00.0,39.0,31.1,10.3,0003.1,0018.39,0010.96,0010.36
2021-09-06 06:40:00,,0830.6,5.00,0.00,29.7,26.5,00.0,38.9,31.1,10.3,0003.1,0018.35,0011.01,0010.38
2021-09-06 06:41:00,,0830.6,5.00,0.00,29.6,26.9,00.0,38.9,31.1,10.3,0003.1,0018.38,0011.07,0010.40
2021-09-06 06:42:00,,0830.6,5.01,0.00,29.6,27.3,00.0,38.8,31.1,10.4,0002.8,0017.55,0011.04,0010.40
2021-09-06 06:43:00,,0830.6,5.00,0.00,29.6,27.6,00.0,38.8,31.2,10.2,0002.8,0017.30,0011.01,0010.39
2021-09-06 06:44:00,,0830.6,5.01,0.00,29.6,27.8,00.0,38.8,31.2,10.2,0002.8,0017.33,0011.03,0010.41
2021-09-06 06:45:00,,0830.6,5.01,0.00,29.6,28.0,00.0,38.8,31.3,10.2,0002.5,0017.44,0011.07,0010.43
2021-09-06 06:46:00,,0830.6,4.98,0.00,29.6,28.2,00.0,38.8,31.3,10.3,0002.4,0017.56,0011.10,0010.42
2021-09-06 06:47:00,,0830.6,5.00,0.00,29.7,28.3,00.0,38.8,31.3,10.3,0002.4,0017.66,0011.11,0010.40
2021-09-06 06:48:00,,0830.6,5.02,0.00,29.7,28.4,00.0,38.8,31.3,10.2,0002.7,0016.99,0011.11,0010.39
2021-09-06 06:49:00,,0830.6,5.00,0.00,29.7,28.4,00.0,38.8,31.4,10.2,0002.4,0016.50,0011.10,0010.38
2021-09-06 06:50:00,,0830.6,5.01,0.00,29.7,28.5,00.0,38.8,31.4,10.2,0001.9,0016.65,0011.07,0010.37
2021-09-06 06:51:00,,0830.6,5.01,0.00,29.7,28.6,00.0,38.8,31.4,10.0,0001.8,0016.41,0011.01,0010.35
2021-09-06 06:52:00,,0830.6,5.01,0.00,29.8,28.6,00.0,38.8,31.5,10.0,0001.6,0016.45,0010.97,0010.33
2021-09-06 06:53:00,,0830.6,5.01,0.00,29.8,28.7,00.0,38.8,31.5,10.0,0001.8,0016.55,0011.00,0010.34
2021-09-06 06:54:00,,0830.5,4.98,0.00,29.8,28.7,00.0,38.8,31.5,10.0,0001.7,0015.80,0011.03,0010.36
2021-09-06 06:55:00,,0830.6,5.00,0.00,29.8,28.7,00.0,38.9,31.6,10.0,0001.6,0015.84,0011.04,0010.37
2021-09-06 06:56:00,,0830.5,4.98,0.00,29.9,28.8,00.0,38.9,31.6,10.0,0002.2,0015.96,0011.04,0010.39
2021-09-06 06:57:00,,0830.5,5.02,0.00,29.9,28.8,00.0,38.9,31.6,09.9,0002.5,0016.13,0011.05,0010.43
2021-09-06 06:58:00,,0830.5,5.00,0.00,29.9,28.9,00.0,38.9,31.7,09.9,0002.8,0016.22,0011.09,0010.47
2021-09-06 06:59:00,,0830.5,5.00,0.00,29.9,28.9,00.0,38.9,31.7,09.8,0002.5,0016.30,0011.11,0010.50
